Change the Weather History Date:

Sunday, May 18, 2014

  Actual Average Record
Temperature  
Mean Temperature 80 °F -  
Max Temperature 87 °F 89 °F - ()
Min Temperature 73 °F 77 °F - ()
Cooling Degree Days 15    
Growing Degree Days 30 (Base 50)    
Moisture  
Dew Point 73 °F    
Average Humidity 75    
Maximum Humidity 94    
Minimum Humidity 56    
Precipitation  
Precipitation 0.00 in 0.26 in - ()
Sea Level Pressure  
Sea Level Pressure 29.93 in    
Wind  
Wind Speed 4 mph ()    
Max Wind Speed 12 mph    
Max Gust Speed -    
Visibility 8.3 miles    
Events      
T = Trace of Precipitation, MM = Missing Value Source: Averaged Metar Reports

Daily Weather History Graph

Daily Weather History Graph

Search for Another Location

Airport or City:

Trip Planner

Search our weather history database for the weather conditions in past years. The results will help you decide how hot, cold, wet, or windy it might be!

Date:

Astronomy

May. 18, 2014 Rise Set
Actual Time 5:20 AM CST 6:19 PM CST
Civil Twilight 4:56 AM CST 6:42 PM CST
Nautical Twilight 4:29 AM CST 7:10 PM CST
Astronomical Twilight 4:01 AM CST 7:38 PM CST
Moon 10:17 PM CST (5/18) 9:03 AM CST (5/18)
Length of Visible Light 13h 46m
Length of Day
12h 59m
Waning Gibbous, 80% of the Moon is Illuminated
May 18
Waning Gibbous
May 21
Last Quarter
May 28
New
Jun 5
First Quarter
Jun 12
Full

Hourly Weather History & Observations

Time (CST) Temp. Heat Index Dew Point Humidity Pressure Visibility Wind Dir Wind Speed Gust Speed Precip Events Conditions
12:00 AM 75 °F - 72 °F 89% 29.98 in 12 mi Calm Calm - -   Partly Cloudy
3:00 AM 73 °F - 71 °F 92% 29.94 in 12 mi Calm Calm - -   Mostly Cloudy
5:00 AM 73.4 °F - 71.6 °F 94% 29.95 in 6.2 mi Calm Calm - N/A   Mostly Cloudy
6:00 AM 74 °F - 72 °F 91% 29.96 in 12 mi Calm Calm - -   Partly Cloudy
6:00 AM 75.2 °F - 71.6 °F 89% 29.95 in 6.2 mi Calm Calm - N/A   Scattered Clouds
7:00 AM 77.0 °F - 71.6 °F 83% 29.96 in 6.2 mi WNW 6.9 mph - N/A   Partly Cloudy
8:00 AM 78.8 °F - 71.6 °F 78% 29.97 in 6.2 mi West 11.5 mph - N/A   Scattered Clouds
9:00 AM 80.6 °F 85.4 °F 73.4 °F 79% 29.96 in 6.2 mi NW 4.6 mph - N/A   Scattered Clouds
10:00 AM 84.2 °F 92.3 °F 75.2 °F 74% 29.96 in 6.2 mi NW 4.6 mph - N/A   Scattered Clouds
11:00 AM 86.0 °F 95.1 °F 75.2 °F 70% 29.95 in 6.2 mi ENE 6.9 mph - N/A   Scattered Clouds
12:00 PM 86 °F - 73 °F 56% 29.94 in 14 mi ENE 6.9 mph - -   Scattered Clouds
12:00 PM 86.0 °F 93.4 °F 73.4 °F 66% 29.94 in 6.2 mi ENE 6.9 mph - N/A   Partly Cloudy
1:00 PM 87.8 °F 95.6 °F 73.4 °F 62% 29.92 in 6.2 mi ENE 8.1 mph - N/A   Partly Cloudy
2:00 PM 86.0 °F 91.8 °F 71.6 °F 62% 29.90 in 6.2 mi East 9.2 mph - N/A   Partly Cloudy
3:00 PM 87 °F - 74 °F 58%  in 14 mi East 8.1 mph - -   Scattered Clouds
3:00 PM 86.0 °F 93.4 °F 73.4 °F 66% 29.88 in 6.2 mi East 8.1 mph - N/A   Partly Cloudy
4:00 PM 86.0 °F 91.8 °F 71.6 °F 62% 29.88 in 6.2 mi East 8.1 mph - N/A   Partly Cloudy
5:00 PM 86.0 °F 95.1 °F 75.2 °F 70% 29.88 in 6.2 mi East 8.1 mph - N/A   Partly Cloudy
6:00 PM 82 °F - 74 °F 72% 29.91 in 12 mi East 6.9 mph - -   Partly Cloudy
6:00 PM 82.4 °F 89.5 °F 75.2 °F 79% 29.90 in 6.2 mi East 6.9 mph - N/A   Partly Cloudy
9:00 PM 79 °F - 75 °F 83% 29.96 in 12 mi ESE 3.5 mph - -   Scattered Clouds